7 * 24
多渠道服务支持
STARLINK-11305是美国SpaceX公司于2024年9月25日发射的星链(Starlink)系列低轨通信卫星,隶属于星链全球卫星互联网星座。星链项目旨在为全球,尤其是偏远、无网络覆盖区域提供高速低延迟宽带互联网服务,并可支撑应急通信、科研及航空航海联网等应用场景。作为星链星座扩容的一环,该卫星将进一步提升星座的全球覆盖能力与通信服务稳定性,助力SpaceX持续推进低轨卫星互联网基础设施建设。
美国
(US)
| 数据来源 | 国际轨道数据 |
| 星历时间: | 2026-03-14T12:11:27+0800 1天前 查看轨道信息 |
| 半长轴: | 6737.891km |
| 偏心率: | 0.0000813 |
| 轨道倾角: | 53.159° |
| 近地点辐角 | 55.701° |
| 升交点赤经 | 33.955° |
| 平近点角 | 304.409° |
| 近地点: | 359.206km |
| 远地点: | 360.302km |
| 周期: | 91.737分钟 |
| 每日圈数: | 15.697007 |